Saint Bonnet de Bellac- Haute Vienne - France
Donnes mto: samedi, 12/11/2011
Date Horaire Temp. E. Hum. E. P.atmo. Pluie Vent Direction Direction Ensoleilleme Solaire P. de rose Temp au vent Rafales
12/11/2011 00:00 13,4 C 81 % 1019,1 hPa 0,0 mm 7,2 km/h (2 Bft) SE 135 0 min 0 W/m 10,2 C 13,4 C 8,6 km/h (2 Bft)
12/11/2011 00:05 13,4 C 82 % 1019,1 hPa 0,0 mm 3,2 km/h (1 Bft) SE 135 0 min 0 W/m 10,4 C 13,4 C 10,8 km/h (2 Bft)
12/11/2011 00:10 13,5 C 82 % 1019,2 hPa 0,0 mm 3,2 km/h (1 Bft) S-SE 157 0 min 0 W/m 10,5 C 13,5 C 6,1 km/h (2 Bft)
12/11/2011 00:15 13,5 C 82 % 1019,2 hPa 0,0 mm 6,1 km/h (2 Bft) S-SE 157 0 min 0 W/m 10,5 C 13,5 C 8,6 km/h (2 Bft)
12/11/2011 00:20 13,6 C 82 % 1019,3 hPa 0,0 mm 5,4 km/h (2 Bft) S-SE 157 0 min 0 W/m 10,6 C 13,6 C 7,9 km/h (2 Bft)
12/11/2011 00:25 13,6 C 81 % 1019,4 hPa 0,0 mm 1,4 km/h (1 Bft) S-SE 157 0 min 0 W/m 10,4 C 13,6 C 3,2 km/h (1 Bft)
12/11/2011 00:30 13,5 C 81 % 1019,5 hPa 0,0 mm 2,9 km/h (1 Bft) SE 135 0 min 0 W/m 10,3 C 13,5 C 4,3 km/h (1 Bft)
12/11/2011 00:35 13,4 C 81 % 1019,4 hPa 0,0 mm 3,6 km/h (1 Bft) SE 135 0 min 0 W/m 10,2 C 13,4 C 6,1 km/h (2 Bft)
12/11/2011 00:40 13,4 C 82 % 1019,5 hPa 0,0 mm 3,2 km/h (1 Bft) SE 135 0 min 0 W/m 10,4 C 13,4 C 7,9 km/h (2 Bft)
12/11/2011 00:45 13,3 C 82 % 1019,5 hPa 0,0 mm 4,0 km/h (1 Bft) S-SE 157 0 min 0 W/m 10,3 C 13,3 C 7,2 km/h (2 Bft)
12/11/2011 00:50 13,4 C 82 % 1019,6 hPa 0,0 mm 5,8 km/h (2 Bft) SE 135 0 min 0 W/m 10,4 C 13,4 C 10,1 km/h (2 Bft)
12/11/2011 00:55 13,4 C 82 % 1019,6 hPa 0,0 mm 2,9 km/h (1 Bft) SE 135 0 min 0 W/m 10,4 C 13,4 C 7,9 km/h (2 Bft)
12/11/2011 01:00 13,4 C 82 % 1019,6 hPa 0,0 mm 4,3 km/h (1 Bft) SE 135 0 min 0 W/m 10,4 C 13,4 C 8,6 km/h (2 Bft)
12/11/2011 01:05 13,3 C 82 % 1019,6 hPa 0,0 mm 1,8 km/h (1 Bft) SE 135 0 min 0 W/m 10,3 C 13,3 C 1,8 km/h (1 Bft)
12/11/2011 01:10 13,2 C 82 % 1019,6 hPa 0,0 mm 0,4 km/h (0 Bft) S-SO 202 0 min 0 W/m 10,2 C 13,2 C 2,9 km/h (1 Bft)
12/11/2011 01:15 13,2 C 82 % 1019,7 hPa 0,0 mm 0,0 km/h (0 Bft) S-SE 157 0 min 0 W/m 10,2 C 13,2 C 1,8 km/h (1 Bft)
12/11/2011 01:20 13,2 C 83 % 1019,8 hPa 0,0 mm 5,0 km/h (1 Bft) S-SE 157 0 min 0 W/m 10,4 C 13,2 C 9,4 km/h (2 Bft)
12/11/2011 01:25 13,3 C 82 % 1019,7 hPa 0,0 mm 2,5 km/h (1 Bft) SE 135 0 min 0 W/m 10,3 C 13,3 C 7,9 km/h (2 Bft)
12/11/2011 01:30 13,2 C 82 % 1019,7 hPa 0,0 mm 2,9 km/h (1 Bft) SE 135 0 min 0 W/m 10,2 C 13,2 C 2,9 km/h (1 Bft)
12/11/2011 01:35 13,2 C 83 % 1019,8 hPa 0,0 mm 0,7 km/h (0 Bft) SE 135 0 min 0 W/m 10,4 C 13,2 C 3,2 km/h (1 Bft)
12/11/2011 01:40 13,1 C 83 % 1019,8 hPa 0,0 mm 1,4 km/h (1 Bft) E-SE 112 0 min 0 W/m 10,3 C 13,1 C 1,4 km/h (1 Bft)
12/11/2011 01:45 13,1 C 83 % 1019,8 hPa 0,0 mm 4,7 km/h (1 Bft) SE 135 0 min 0 W/m 10,3 C 13,1 C 8,3 km/h (2 Bft)
12/11/2011 01:50 13,1 C 83 % 1019,8 hPa 0,0 mm 3,6 km/h (1 Bft) SE 135 0 min 0 W/m 10,3 C 13,1 C 6,5 km/h (2 Bft)
12/11/2011 01:55 13,1 C 83 % 1019,8 hPa 0,0 mm 7,6 km/h (2 Bft) SE 135 0 min 0 W/m 10,3 C 13,1 C 7,9 km/h (2 Bft)
12/11/2011 02:02 13,1 C 83 % 1019,8 hPa 0,0 mm 4,3 km/h (1 Bft) SE 135 0 min 0 W/m 10,3 C 13,1 C 7,9 km/h (2 Bft)
12/11/2011 02:05 13,2 C 83 % 1019,8 hPa 0,0 mm 2,5 km/h (1 Bft) S-SE 157 0 min 0 W/m 10,4 C 13,2 C 4,0 km/h (1 Bft)
12/11/2011 02:10 13,2 C 83 % 1019,8 hPa 0,0 mm 2,5 km/h (1 Bft) SE 135 0 min 0 W/m 10,4 C 13,2 C 4,3 km/h (1 Bft)
12/11/2011 02:15 13,2 C 83 % 1019,9 hPa 0,0 mm 3,6 km/h (1 Bft) S-SE 157 0 min 0 W/m 10,4 C 13,2 C 7,9 km/h (2 Bft)
12/11/2011 02:20 13,2 C 83 % 1020,0 hPa 0,0 mm 0,7 km/h (0 Bft) O-SO 247 0 min 0 W/m 10,4 C 13,2 C 3,6 km/h (1 Bft)
12/11/2011 02:25 13,2 C 83 % 1020,0 hPa 0,0 mm 1,4 km/h (1 Bft) SE 135 0 min 0 W/m 10,4 C 13,2 C 3,6 km/h (1 Bft)
12/11/2011 02:30 13,2 C 83 % 1020,0 hPa 0,0 mm 3,6 km/h (1 Bft) S-SO 202 0 min 0 W/m 10,4 C 13,2 C 4,7 km/h (1 Bft)
12/11/2011 02:35 13,1 C 83 % 1020,1 hPa 0,0 mm 0,4 km/h (0 Bft) SE 135 0 min 0 W/m 10,3 C 13,1 C 9,0 km/h (2 Bft)
12/11/2011 02:40 13,1 C 83 % 1020,1 hPa 0,0 mm 2,2 km/h (1 Bft) SE 135 0 min 0 W/m 10,3 C 13,1 C 4,0 km/h (1 Bft)
12/11/2011 02:45 13,1 C 84 % 1020,3 hPa 0,0 mm 2,2 km/h (1 Bft) S 180 0 min 0 W/m 10,5 C 13,1 C 7,9 km/h (2 Bft)
12/11/2011 02:50 13,1 C 84 % 1020,2 hPa 0,0 mm 6,1 km/h (2 Bft) S-SE 157 0 min 0 W/m 10,5 C 13,1 C 10,8 km/h (2 Bft)
12/11/2011 02:55 13,1 C 84 % 1020,3 hPa 0,0 mm 3,6 km/h (1 Bft) S-SE 157 0 min 0 W/m 10,5 C 13,1 C 6,1 km/h (2 Bft)
12/11/2011 03:00 13,2 C 84 % 1020,3 hPa 0,0 mm 2,2 km/h (1 Bft) S 180 0 min 0 W/m 10,6 C 13,2 C 6,8 km/h (2 Bft)
12/11/2011 03:05 13,1 C 84 % 1020,3 hPa 0,0 mm 5,8 km/h (2 Bft) SE 135 0 min 0 W/m 10,5 C 13,1 C 11,2 km/h (2 Bft)
12/11/2011 03:10 13,1 C 84 % 1020,3 hPa 0,0 mm 4,0 km/h (1 Bft) S 180 0 min 0 W/m 10,5 C 13,1 C 8,6 km/h (2 Bft)
12/11/2011 03:15 13,2 C 84 % 1020,3 hPa 0,0 mm 4,7 km/h (1 Bft) SE 135 0 min 0 W/m 10,6 C 13,2 C 8,3 km/h (2 Bft)
12/11/2011 03:20 13,3 C 84 % 1020,2 hPa 0,0 mm 6,1 km/h (2 Bft) SE 135 0 min 0 W/m 10,7 C 13,3 C 12,2 km/h (2 Bft)
12/11/2011 03:25 13,3 C 83 % 1020,3 hPa 0,0 mm 2,5 km/h (1 Bft) E-SE 112 0 min 0 W/m 10,5 C 13,3 C 10,1 km/h (2 Bft)
12/11/2011 03:30 13,3 C 83 % 1020,2 hPa 0,0 mm 1,4 km/h (1 Bft) S 180 0 min 0 W/m 10,5 C 13,3 C 7,9 km/h (2 Bft)
12/11/2011 03:35 13,4 C 84 % 1020,1 hPa 0,0 mm 1,8 km/h (1 Bft) S-SE 157 0 min 0 W/m 10,8 C 13,4 C 2,9 km/h (1 Bft)
12/11/2011 03:40 13,4 C 83 % 1020,1 hPa 0,0 mm 5,4 km/h (2 Bft) SE 135 0 min 0 W/m 10,6 C 13,4 C 6,1 km/h (2 Bft)
12/11/2011 03:45 13,4 C 83 % 1020,1 hPa 0,0 mm 4,3 km/h (1 Bft) SE 135 0 min 0 W/m 10,6 C 13,4 C 4,3 km/h (1 Bft)
12/11/2011 03:50 13,4 C 83 % 1020,2 hPa 0,0 mm 1,1 km/h (1 Bft) SE 135 0 min 0 W/m 10,6 C 13,4 C 1,1 km/h (1 Bft)
12/11/2011 03:55 13,4 C 83 % 1020,2 hPa 0,0 mm 5,4 km/h (2 Bft) E-SE 112 0 min 0 W/m 10,6 C 13,4 C 8,3 km/h (2 Bft)
12/11/2011 04:00 13,4 C 83 % 1020,2 hPa 0,0 mm 7,6 km/h (2 Bft) SE 135 0 min 0 W/m 10,6 C 13,4 C 8,6 km/h (2 Bft)
12/11/2011 04:05 13,5 C 83 % 1020,2 hPa 0,0 mm 5,4 km/h (2 Bft) E-SE 112 0 min 0 W/m 10,7 C 13,5 C 10,1 km/h (2 Bft)
12/11/2011 04:10 13,5 C 83 % 1020,2 hPa 0,0 mm 4,0 km/h (1 Bft) SE 135 0 min 0 W/m 10,7 C 13,5 C 9,7 km/h (2 Bft)
12/11/2011 04:15 13,5 C 83 % 1020,2 hPa 0,0 mm 5,4 km/h (2 Bft) E-SE 112 0 min 0 W/m 10,7 C 13,5 C 7,9 km/h (2 Bft)
12/11/2011 04:20 13,4 C 83 % 1020,2 hPa 0,0 mm 0,4 km/h (0 Bft) SE 135 0 min 0 W/m 10,6 C 13,4 C 2,9 km/h (1 Bft)
12/11/2011 04:25 13,4 C 83 % 1020,3 hPa 0,0 mm 4,7 km/h (1 Bft) E-SE 112 0 min 0 W/m 10,6 C 13,4 C 8,6 km/h (2 Bft)
12/11/2011 04:30 13,4 C 83 % 1020,3 hPa 0,0 mm 4,7 km/h (1 Bft) SE 135 0 min 0 W/m 10,6 C 13,4 C 9,0 km/h (2 Bft)
12/11/2011 04:35 13,5 C 83 % 1020,3 hPa 0,0 mm 1,1 km/h (1 Bft) SE 135 0 min 0 W/m 10,7 C 13,5 C 4,3 km/h (1 Bft)
12/11/2011 04:40 13,4 C 83 % 1020,3 hPa 0,0 mm 1,4 km/h (1 Bft) S-SE 157 0 min 0 W/m 10,6 C 13,4 C 3,6 km/h (1 Bft)
12/11/2011 04:45 13,4 C 83 % 1020,4 hPa 0,0 mm 2,2 km/h (1 Bft) SE 135 0 min 0 W/m 10,6 C 13,4 C 4,3 km/h (1 Bft)
12/11/2011 04:50 13,4 C 83 % 1020,4 hPa 0,0 mm 0,0 km/h (0 Bft) SE 135 0 min 0 W/m 10,6 C 13,4 C 0,0 km/h (0 Bft)
12/11/2011 04:55 13,3 C 83 % 1020,4 hPa 0,0 mm 0,0 km/h (0 Bft) SE 135 0 min 0 W/m 10,5 C 13,3 C 0,0 km/h (0 Bft)
12/11/2011 05:00 13,1 C 83 % 1020,4 hPa 0,0 mm 4,3 km/h (1 Bft) S-SE 157 0 min 0 W/m 10,3 C 13,1 C 7,9 km/h (2 Bft)
12/11/2011 05:05 13,1 C 84 % 1020,4 hPa 0,0 mm 3,6 km/h (1 Bft) S-SE 157 0 min 0 W/m 10,5 C 13,1 C 6,5 km/h (2 Bft)
12/11/2011 05:10 13,1 C 84 % 1020,4 hPa 0,0 mm 5,0 km/h (1 Bft) S 180 0 min 0 W/m 10,5 C 13,1 C 11,2 km/h (2 Bft)
12/11/2011 05:15 13,2 C 84 % 1020,4 hPa 0,0 mm 2,2 km/h (1 Bft) SE 135 0 min 0 W/m 10,6 C 13,2 C 9,4 km/h (2 Bft)
12/11/2011 05:20 13,2 C 84 % 1020,4 hPa 0,0 mm 3,6 km/h (1 Bft) S-SE 157 0 min 0 W/m 10,6 C 13,2 C 6,8 km/h (2 Bft)
12/11/2011 05:25 13,3 C 84 % 1020,5 hPa 0,0 mm 1,8 km/h (1 Bft) SE 135 0 min 0 W/m 10,7 C 13,3 C 2,9 km/h (1 Bft)
12/11/2011 05:30 13,3 C 84 % 1020,5 hPa 0,0 mm 2,2 km/h (1 Bft) SE 135 0 min 0 W/m 10,7 C 13,3 C 3,6 km/h (1 Bft)
12/11/2011 05:35 13,3 C 84 % 1020,5 hPa 0,0 mm 3,6 km/h (1 Bft) S-SE 157 0 min 0 W/m 10,7 C 13,3 C 3,6 km/h (1 Bft)
12/11/2011 05:40 13,3 C 84 % 1020,6 hPa 0,0 mm 2,2 km/h (1 Bft) SE 135 0 min 0 W/m 10,7 C 13,3 C 3,6 km/h (1 Bft)
12/11/2011 05:45 13,4 C 84 % 1020,6 hPa 0,0 mm 4,3 km/h (1 Bft) SE 135 0 min 0 W/m 10,8 C 13,4 C 7,6 km/h (2 Bft)
12/11/2011 05:50 13,4 C 84 % 1020,5 hPa 0,0 mm 5,4 km/h (2 Bft) S-SE 157 0 min 0 W/m 10,8 C 13,4 C 7,9 km/h (2 Bft)
12/11/2011 05:55 13,5 C 84 % 1020,6 hPa 0,0 mm 9,0 km/h (2 Bft) SE 135 0 min 0 W/m 10,8 C 13,5 C 11,9 km/h (2 Bft)
12/11/2011 06:00 13,6 C 84 % 1020,6 hPa 0,0 mm 3,6 km/h (1 Bft) SE 135 0 min 0 W/m 10,9 C 13,6 C 9,0 km/h (2 Bft)
12/11/2011 06:05 13,7 C 84 % 1020,6 hPa 0,0 mm 7,9 km/h (2 Bft) SE 135 0 min 0 W/m 11,0 C 13,7 C 7,9 km/h (2 Bft)
12/11/2011 06:10 13,8 C 83 % 1020,7 hPa 0,0 mm 5,0 km/h (1 Bft) S-SE 157 0 min 0 W/m 11,0 C 13,8 C 11,5 km/h (2 Bft)
12/11/2011 06:15 13,8 C 83 % 1020,8 hPa 0,0 mm 4,3 km/h (1 Bft) S-SE 157 0 min 0 W/m 11,0 C 13,8 C 7,2 km/h (2 Bft)
12/11/2011 06:20 13,8 C 83 % 1020,7 hPa 0,0 mm 10,8 km/h (2 Bft) SE 135 0 min 0 W/m 11,0 C 13,8 C 15,1 km/h (3 Bft)
12/11/2011 06:25 13,8 C 83 % 1020,7 hPa 0,0 mm 2,2 km/h (1 Bft) E-SE 112 0 min 0 W/m 11,0 C 13,8 C 3,6 km/h (1 Bft)
12/11/2011 06:30 13,8 C 83 % 1020,8 hPa 0,0 mm 4,3 km/h (1 Bft) S-SE 157 0 min 0 W/m 11,0 C 13,8 C 6,8 km/h (2 Bft)
12/11/2011 06:35 13,8 C 83 % 1020,8 hPa 0,0 mm 1,4 km/h (1 Bft) SE 135 0 min 0 W/m 11,0 C 13,8 C 2,9 km/h (1 Bft)
12/11/2011 06:40 13,8 C 83 % 1020,9 hPa 0,0 mm 3,2 km/h (1 Bft) SE 135 0 min 0 W/m 11,0 C 13,8 C 6,8 km/h (2 Bft)
12/11/2011 06:45 13,8 C 83 % 1020,9 hPa 0,0 mm 2,2 km/h (1 Bft) SE 135 0 min 0 W/m 11,0 C 13,8 C 6,8 km/h (2 Bft)
12/11/2011 06:50 13,9 C 83 % 1021,0 hPa 0,0 mm 2,2 km/h (1 Bft) E-SE 112 0 min 0 W/m 11,1 C 13,9 C 2,2 km/h (1 Bft)
12/11/2011 06:55 13,9 C 83 % 1021,0 hPa 0,0 mm 7,2 km/h (2 Bft) S-SE 157 0 min 0 W/m 11,1 C 13,9 C 10,8 km/h (2 Bft)
12/11/2011 07:00 13,9 C 83 % 1021,1 hPa 0,0 mm 2,2 km/h (1 Bft) S-SE 157 0 min 0 W/m 11,1 C 13,9 C 5,8 km/h (2 Bft)
12/11/2011 07:05 13,9 C 83 % 1021,1 hPa 0,0 mm 9,4 km/h (2 Bft) S-SO 202 0 min 0 W/m 11,1 C 13,9 C 18,4 km/h (3 Bft)
12/11/2011 07:10 13,9 C 83 % 1021,1 hPa 0,0 mm 5,4 km/h (2 Bft) E-SE 112 0 min 0 W/m 11,1 C 13,9 C 7,9 km/h (2 Bft)
12/11/2011 07:15 13,9 C 83 % 1021,1 hPa 0,0 mm 5,0 km/h (1 Bft) S-SE 157 0 min 0 W/m 11,1 C 13,9 C 5,0 km/h (1 Bft)
12/11/2011 07:20 13,9 C 83 % 1021,3 hPa 0,0 mm 2,9 km/h (1 Bft) SE 135 0 min 0 W/m 11,1 C 13,9 C 6,5 km/h (2 Bft)
12/11/2011 07:25 13,9 C 83 % 1021,3 hPa 0,0 mm 6,5 km/h (2 Bft) S-SE 157 0 min 0 W/m 11,1 C 13,9 C 10,1 km/h (2 Bft)
12/11/2011 07:30 14,0 C 83 % 1021,4 hPa 0,0 mm 7,9 km/h (2 Bft) E-NE 67 0 min 0 W/m 11,2 C 14,0 C 11,2 km/h (2 Bft)
12/11/2011 07:35 14,1 C 83 % 1021,4 hPa 0,0 mm 4,0 km/h (1 Bft) SE 135 0 min 0 W/m 11,3 C 14,1 C 7,9 km/h (2 Bft)
12/11/2011 07:40 14,1 C 83 % 1021,4 hPa 0,0 mm 5,0 km/h (1 Bft) SE 135 0 min 0 W/m 11,3 C 14,1 C 7,9 km/h (2 Bft)
12/11/2011 07:45 14,1 C 83 % 1021,5 hPa 0,0 mm 10,1 km/h (2 Bft) E-SE 112 0 min 0 W/m 11,3 C 14,1 C 19,8 km/h (3 Bft)
12/11/2011 07:50 14,1 C 82 % 1021,5 hPa 0,0 mm 7,2 km/h (2 Bft) SE 135 0 min 0 W/m 11,1 C 14,1 C 13,0 km/h (3 Bft)
12/11/2011 07:55 14,1 C 82 % 1021,6 hPa 0,0 mm 8,3 km/h (2 Bft) S 180 0 min 0 W/m 11,1 C 14,1 C 16,2 km/h (3 Bft)
12/11/2011 08:00 14,1 C 82 % 1021,6 hPa 0,0 mm 5,8 km/h (2 Bft) E-SE 112 0 min 0 W/m 11,1 C 14,1 C 7,6 km/h (2 Bft)
12/11/2011 08:05 14,1 C 82 % 1021,8 hPa 0,0 mm 7,2 km/h (2 Bft) SE 135 0 min 0 W/m 11,1 C 14,1 C 7,2 km/h (2 Bft)
12/11/2011 08:10 14,1 C 82 % 1021,8 hPa 0,0 mm 7,9 km/h (2 Bft) SE 135 0 min 0 W/m 11,1 C 14,1 C 9,0 km/h (2 Bft)
12/11/2011 08:15 14,3 C 82 % 1021,8 hPa 0,0 mm 4,3 km/h (1 Bft) SE 135 0 min 0 W/m 11,3 C 14,3 C 11,5 km/h (2 Bft)
12/11/2011 08:20 14,3 C 82 % 1021,9 hPa 0,0 mm 5,4 km/h (2 Bft) S-SE 157 0 min 0 W/m 11,3 C 14,3 C 11,2 km/h (2 Bft)
12/11/2011 08:25 14,4 C 82 % 1022,0 hPa 0,0 mm 4,0 km/h (1 Bft) E-SE 112 0 min 0 W/m 11,4 C 14,4 C 4,0 km/h (1 Bft)
12/11/2011 08:30 14,3 C 81 % 1022,1 hPa 0,0 mm 6,5 km/h (2 Bft) S-SO 202 0 min 0 W/m 11,1 C 14,3 C 12,2 km/h (2 Bft)
12/11/2011 08:35 14,5 C 81 % 1022,1 hPa 0,0 mm 8,6 km/h (2 Bft) S-SO 202 0 min 0 W/m 11,3 C 14,5 C 10,1 km/h (2 Bft)
12/11/2011 08:40 14,7 C 81 % 1022,1 hPa 0,0 mm 9,4 km/h (2 Bft) S-SE 157 0 min 0 W/m 11,5 C 14,7 C 9,4 km/h (2 Bft)
12/11/2011 08:45 14,9 C 80 % 1022,2 hPa 0,0 mm 7,2 km/h (2 Bft) SE 135 0 min 0 W/m 11,5 C 14,9 C 11,2 km/h (2 Bft)
12/11/2011 08:50 15,1 C 79 % 1022,3 hPa 0,0 mm 9,4 km/h (2 Bft) S-SO 202 0 min 0 W/m 11,5 C 15,1 C 16,9 km/h (3 Bft)
12/11/2011 08:55 15,2 C 79 % 1022,2 hPa 0,0 mm 3,6 km/h (1 Bft) SE 135 0 min 0 W/m 11,6 C 15,2 C 6,1 km/h (2 Bft)
12/11/2011 09:00 15,4 C 79 % 1022,3 hPa 0,0 mm 2,2 km/h (1 Bft) S-SE 157 0 min 0 W/m 11,8 C 15,4 C 4,0 km/h (1 Bft)
12/11/2011 09:05 15,4 C 78 % 1022,3 hPa 0,0 mm 10,4 km/h (2 Bft) SE 135 0 min 0 W/m 11,6 C 15,4 C 14,4 km/h (3 Bft)
12/11/2011 09:10 15,5 C 78 % 1022,3 hPa 0,0 mm 6,5 km/h (2 Bft) S-SE 157 0 min 0 W/m 11,7 C 15,5 C 14,0 km/h (3 Bft)
12/11/2011 09:15 15,6 C 78 % 1022,2 hPa 0,0 mm 13,0 km/h (3 Bft) E-SE 112 0 min 0 W/m 11,8 C 15,6 C 15,1 km/h (3 Bft)
12/11/2011 09:20 15,8 C 77 % 1022,3 hPa 0,0 mm 5,4 km/h (2 Bft) S 180 0 min 0 W/m 11,8 C 15,8 C 10,1 km/h (2 Bft)
12/11/2011 09:25 15,9 C 77 % 1022,4 hPa 0,0 mm 6,5 km/h (2 Bft) S-SE 157 0 min 0 W/m 11,9 C 15,9 C 9,7 km/h (2 Bft)
12/11/2011 09:30 16,0 C 77 % 1022,3 hPa 0,0 mm 4,7 km/h (1 Bft) E-SE 112 0 min 0 W/m 12,0 C 16,0 C 8,3 km/h (2 Bft)
12/11/2011 09:35 16,1 C 76 % 1022,4 hPa 0,0 mm 4,3 km/h (1 Bft) SE 135 0 min 0 W/m 11,9 C 16,1 C 7,2 km/h (2 Bft)
12/11/2011 09:40 16,1 C 76 % 1022,4 hPa 0,0 mm 4,0 km/h (1 Bft) S-SO 202 0 min 0 W/m 11,9 C 16,1 C 8,6 km/h (2 Bft)
12/11/2011 09:45 16,1 C 76 % 1022,5 hPa 0,0 mm 4,3 km/h (1 Bft) S-SE 157 0 min 0 W/m 11,9 C 16,1 C 4,3 km/h (1 Bft)
12/11/2011 09:50 16,1 C 76 % 1022,5 hPa 0,0 mm 6,5 km/h (2 Bft) S-SO 202 0 min 0 W/m 11,9 C 16,1 C 6,8 km/h (2 Bft)
12/11/2011 09:55 16,2 C 76 % 1022,6 hPa 0,0 mm 3,2 km/h (1 Bft) S-SE 157 0 min 0 W/m 12,0 C 16,2 C 7,6 km/h (2 Bft)
12/11/2011 10:00 16,3 C 75 % 1022,8 hPa 0,0 mm 9,7 km/h (2 Bft) S-SE 157 0 min 0 W/m 11,9 C 16,3 C 9,7 km/h (2 Bft)
12/11/2011 10:05 16,6 C 75 % 1022,8 hPa 0,0 mm 1,4 km/h (1 Bft) S-SE 157 0 min 0 W/m 12,1 C 16,6 C 5,8 km/h (2 Bft)
12/11/2011 10:10 16,9 C 74 % 1022,8 hPa 0,0 mm 7,6 km/h (2 Bft) S-SE 157 0 min 0 W/m 12,2 C 16,9 C 11,2 km/h (2 Bft)
12/11/2011 10:15 17,3 C 73 % 1022,9 hPa 0,0 mm 5,4 km/h (2 Bft) E-SE 112 0 min 0 W/m 12,4 C 17,3 C 8,3 km/h (2 Bft)
12/11/2011 10:20 17,6 C 73 % 1023,2 hPa 0,0 mm 7,6 km/h (2 Bft) S-SE 157 0 min 0 W/m 12,7 C 17,6 C 7,6 km/h (2 Bft)
12/11/2011 10:25 17,8 C 72 % 1023,1 hPa 0,0 mm 9,7 km/h (2 Bft) S-SE 157 0 min 0 W/m 12,7 C 17,8 C 13,3 km/h (3 Bft)
12/11/2011 10:30 18,1 C 71 % 1023,1 hPa 0,0 mm 10,4 km/h (2 Bft) S-SE 157 0 min 0 W/m 12,8 C 18,1 C 17,3 km/h (3 Bft)
12/11/2011 10:35 18,3 C 70 % 1023,1 hPa 0,0 mm 6,8 km/h (2 Bft) SE 135 0 min 0 W/m 12,7 C 18,3 C 9,4 km/h (2 Bft)
12/11/2011 10:40 18,4 C 70 % 1023,2 hPa 0,0 mm 11,9 km/h (2 Bft) S 180 0 min 0 W/m 12,8 C 18,4 C 19,8 km/h (3 Bft)
12/11/2011 10:45 18,5 C 69 % 1023,3 hPa 0,0 mm 9,4 km/h (2 Bft) S-SE 157 0 min 0 W/m 12,7 C 18,5 C 12,6 km/h (3 Bft)
12/11/2011 10:50 18,6 C 69 % 1023,3 hPa 0,0 mm 8,3 km/h (2 Bft) S 180 0 min 0 W/m 12,8 C 18,6 C 13,0 km/h (3 Bft)
12/11/2011 10:55 18,6 C 69 % 1023,3 hPa 0,0 mm 3,6 km/h (1 Bft) S-SO 202 0 min 0 W/m 12,8 C 18,6 C 6,1 km/h (2 Bft)
12/11/2011 11:00 18,8 C 69 % 1023,4 hPa 0,0 mm 8,6 km/h (2 Bft) S-SO 202 0 min 0 W/m 13,0 C 18,8 C 11,5 km/h (2 Bft)
12/11/2011 11:05 18,8 C 68 % 1023,5 hPa 0,0 mm 8,3 km/h (2 Bft) S-SE 157 0 min 0 W/m 12,8 C 18,8 C 13,7 km/h (3 Bft)
12/11/2011 11:10 18,9 C 68 % 1023,5 hPa 0,0 mm 6,5 km/h (2 Bft) SE 135 0 min 0 W/m 12,9 C 18,9 C 6,5 km/h (2 Bft)
12/11/2011 11:15 19,1 C 68 % 1023,5 hPa 0,0 mm 4,7 km/h (1 Bft) SE 135 0 min 0 W/m 13,1 C 19,1 C 8,3 km/h (2 Bft)
12/11/2011 11:20 19,3 C 67 % 1023,5 hPa 0,0 mm 13,3 km/h (3 Bft) S 180 0 min 0 W/m 13,0 C 19,3 C 16,6 km/h (3 Bft)
12/11/2011 11:25 19,6 C 67 % 1023,5 hPa 0,0 mm 3,2 km/h (1 Bft) S-SE 157 0 min 0 W/m 13,3 C 19,6 C 6,1 km/h (2 Bft)
12/11/2011 11:30 19,8 C 66 % 1023,5 hPa 0,0 mm 10,1 km/h (2 Bft) S 180 0 min 0 W/m 13,3 C 19,8 C 17,3 km/h (3 Bft)
12/11/2011 11:35 19,8 C 67 % 1023,5 hPa 0,0 mm 9,0 km/h (2 Bft) S 180 0 min 0 W/m 13,5 C 19,8 C 18,7 km/h (3 Bft)
12/11/2011 11:40 20,1 C 66 % 1023,5 hPa 0,0 mm 6,5 km/h (2 Bft) SE 135 0 min 0 W/m 13,5 C 20,1 C 17,3 km/h (3 Bft)
12/11/2011 11:45 20,2 C 65 % 1023,6 hPa 0,0 mm 10,4 km/h (2 Bft) S 180 0 min 0 W/m 13,4 C 20,2 C 10,4 km/h (2 Bft)
12/11/2011 11:50 20,3 C 65 % 1023,8 hPa 0,0 mm 13,7 km/h (3 Bft) S-SE 157 0 min 0 W/m 13,5 C 20,3 C 17,6 km/h (3 Bft)
12/11/2011 11:55 20,3 C 65 % 1023,7 hPa 0,0 mm 11,5 km/h (2 Bft) S-SE 157 0 min 0 W/m 13,5 C 20,3 C 11,5 km/h (2 Bft)
12/11/2011 12:00 20,3 C 65 % 1023,7 hPa 0,0 mm 7,9 km/h (2 Bft) E 90 0 min 0 W/m 13,5 C 20,3 C 13,7 km/h (3 Bft)
12/11/2011 12:05 20,3 C 64 % 1023,6 hPa 0,0 mm 9,0 km/h (2 Bft) S-SE 157 0 min 0 W/m 13,3 C 20,3 C 16,6 km/h (3 Bft)
12/11/2011 12:10 20,2 C 65 % 1023,6 hPa 0,0 mm 13,0 km/h (3 Bft) S-SO 202 0 min 0 W/m 13,4 C 20,2 C 21,6 km/h (4 Bft)
12/11/2011 12:15 20,1 C 65 % 1023,5 hPa 0,0 mm 11,5 km/h (2 Bft) S-SE 157 0 min 0 W/m 13,3 C 20,1 C 11,5 km/h (2 Bft)
12/11/2011 12:20 19,9 C 65 % 1023,5 hPa 0,0 mm 9,0 km/h (2 Bft) S-SE 157 0 min 0 W/m 13,1 C 19,9 C 11,2 km/h (2 Bft)
12/11/2011 12:25 19,9 C 65 % 1023,5 hPa 0,0 mm 10,8 km/h (2 Bft) S-SE 157 0 min 0 W/m 13,1 C 19,9 C 16,2 km/h (3 Bft)
12/11/2011 12:30 19,9 C 65 % 1023,6 hPa 0,0 mm 5,0 km/h (1 Bft) E-SE 112 0 min 0 W/m 13,1 C 19,9 C 11,2 km/h (2 Bft)
12/11/2011 12:35 19,9 C 65 % 1023,6 hPa 0,0 mm 9,0 km/h (2 Bft) E 90 0 min 0 W/m 13,1 C 19,9 C 11,2 km/h (2 Bft)
12/11/2011 12:40 20,1 C 65 % 1023,5 hPa 0,0 mm 9,7 km/h (2 Bft) S-SE 157 0 min 0 W/m 13,3 C 20,1 C 20,5 km/h (4 Bft)
12/11/2011 12:45 20,1 C 65 % 1023,5 hPa 0,0 mm 7,6 km/h (2 Bft) S-SE 157 0 min 0 W/m 13,3 C 20,1 C 17,3 km/h (3 Bft)
12/11/2011 12:50 20,3 C 65 % 1023,5 hPa 0,0 mm 9,0 km/h (2 Bft) S-SO 202 0 min 0 W/m 13,5 C 20,3 C 13,3 km/h (3 Bft)
12/11/2011 12:55 20,4 C 66 % 1023,6 hPa 0,0 mm 6,8 km/h (2 Bft) S-SE 157 0 min 0 W/m 13,8 C 20,4 C 10,4 km/h (2 Bft)
12/11/2011 13:00 20,4 C 64 % 1023,6 hPa 0,0 mm 7,9 km/h (2 Bft) S-SO 202 0 min 0 W/m 13,4 C 20,4 C 10,4 km/h (2 Bft)
12/11/2011 13:05 20,4 C 65 % 1023,5 hPa 0,0 mm 7,2 km/h (2 Bft) S-SE 157 0 min 0 W/m 13,6 C 20,4 C 11,2 km/h (2 Bft)
12/11/2011 13:10 20,4 C 65 % 1023,5 hPa 0,0 mm 5,0 km/h (1 Bft) E-SE 112 0 min 0 W/m 13,6 C 20,4 C 13,7 km/h (3 Bft)
12/11/2011 13:15 20,5 C 64 % 1023,4 hPa 0,0 mm 8,6 km/h (2 Bft) E-SE 112 0 min 0 W/m 13,5 C 20,5 C 9,4 km/h (2 Bft)
12/11/2011 13:20 20,6 C 64 % 1023,4 hPa 0,0 mm 4,7 km/h (1 Bft) SE 135 0 min 0 W/m 13,5 C 20,6 C 11,2 km/h (2 Bft)
12/11/2011 13:25 20,6 C 63 % 1023,5 hPa 0,0 mm 4,3 km/h (1 Bft) S 180 0 min 0 W/m 13,3 C 20,6 C 4,3 km/h (1 Bft)
12/11/2011 13:30 20,8 C 63 % 1023,5 hPa 0,0 mm 4,7 km/h (1 Bft) S 180 0 min 0 W/m 13,5 C 20,8 C 10,1 km/h (2 Bft)
12/11/2011 13:35 20,9 C 63 % 1023,5 hPa 0,0 mm 6,8 km/h (2 Bft) SE 135 0 min 0 W/m 13,6 C 20,9 C 8,6 km/h (2 Bft)
12/11/2011 13:40 20,9 C 62 % 1023,4 hPa 0,0 mm 4,3 km/h (1 Bft) S-SE 157 0 min 0 W/m 13,3 C 20,9 C 7,2 km/h (2 Bft)
12/11/2011 13:45 20,9 C 63 % 1023,3 hPa 0,0 mm 4,7 km/h (1 Bft) S-SE 157 0 min 0 W/m 13,6 C 20,9 C 8,6 km/h (2 Bft)
12/11/2011 13:50 20,9 C 62 % 1023,3 hPa 0,0 mm 10,1 km/h (2 Bft) SE 135 0 min 0 W/m 13,3 C 20,9 C 10,1 km/h (2 Bft)
12/11/2011 13:55 20,8 C 61 % 1023,4 hPa 0,0 mm 7,2 km/h (2 Bft) SE 135 0 min 0 W/m 13,0 C 20,8 C 14,8 km/h (3 Bft)
12/11/2011 14:00 20,8 C 62 % 1023,2 hPa 0,0 mm 4,0 km/h (1 Bft) S 180 0 min 0 W/m 13,2 C 20,8 C 7,2 km/h (2 Bft)
12/11/2011 14:05 20,8 C 62 % 1023,1 hPa 0,0 mm 5,8 km/h (2 Bft) S 180 0 min 0 W/m 13,2 C 20,8 C 5,8 km/h (2 Bft)
12/11/2011 14:10 20,8 C 63 % 1023,1 hPa 0,0 mm 4,7 km/h (1 Bft) S 180 0 min 0 W/m 13,5 C 20,8 C 10,8 km/h (2 Bft)
12/11/2011 14:15 20,8 C 62 % 1023,1 hPa 0,0 mm 5,8 km/h (2 Bft) S-SE 157 0 min 0 W/m 13,2 C 20,8 C 9,4 km/h (2 Bft)
12/11/2011 14:20 20,7 C 62 % 1022,9 hPa 0,0 mm 4,3 km/h (1 Bft) E-SE 112 0 min 0 W/m 13,2 C 20,7 C 10,4 km/h (2 Bft)
12/11/2011 14:25 20,6 C 62 % 1022,9 hPa 0,0 mm 4,3 km/h (1 Bft) SE 135 0 min 0 W/m 13,1 C 20,6 C 6,1 km/h (2 Bft)
12/11/2011 14:30 20,4 C 62 % 1022,9 hPa 0,0 mm 3,6 km/h (1 Bft) E-SE 112 0 min 0 W/m 12,9 C 20,4 C 3,6 km/h (1 Bft)
12/11/2011 14:35 20,4 C 63 % 1022,9 hPa 0,0 mm 3,6 km/h (1 Bft) E-SE 112 0 min 0 W/m 13,1 C 20,4 C 3,6 km/h (1 Bft)
12/11/2011 14:40 20,3 C 63 % 1022,8 hPa 0,0 mm 7,9 km/h (2 Bft) S-SE 157 0 min 0 W/m 13,0 C 20,3 C 8,6 km/h (2 Bft)
12/11/2011 14:45 20,2 C 63 % 1022,8 hPa 0,0 mm 8,3 km/h (2 Bft) S-SE 157 0 min 0 W/m 12,9 C 20,2 C 16,2 km/h (3 Bft)
12/11/2011 14:50 20,1 C 64 % 1022,8 hPa 0,0 mm 3,6 km/h (1 Bft) E-SE 112 0 min 0 W/m 13,1 C 20,1 C 4,0 km/h (1 Bft)
12/11/2011 14:55 20,1 C 64 % 1022,8 hPa 0,0 mm 2,2 km/h (1 Bft) SE 135 0 min 0 W/m 13,1 C 20,1 C 6,5 km/h (2 Bft)
12/11/2011 15:00 20,2 C 64 % 1022,9 hPa 0,0 mm 5,8 km/h (2 Bft) E-SE 112 0 min 0 W/m 13,2 C 20,2 C 7,9 km/h (2 Bft)
12/11/2011 15:05 20,2 C 64 % 1022,8 hPa 0,0 mm 1,4 km/h (1 Bft) SE 135 0 min 0 W/m 13,2 C 20,2 C 6,1 km/h (2 Bft)
12/11/2011 15:10 20,1 C 64 % 1022,8 hPa 0,0 mm 4,3 km/h (1 Bft) S 180 0 min 0 W/m 13,1 C 20,1 C 8,6 km/h (2 Bft)
12/11/2011 15:15 20,1 C 64 % 1022,9 hPa 0,0 mm 5,8 km/h (2 Bft) S-SE 157 0 min 0 W/m 13,1 C 20,1 C 10,1 km/h (2 Bft)
12/11/2011 15:20 20,1 C 64 % 1022,9 hPa 0,0 mm 1,1 km/h (1 Bft) SE 135 0 min 0 W/m 13,1 C 20,1 C 4,3 km/h (1 Bft)
12/11/2011 15:25 19,9 C 64 % 1022,9 hPa 0,0 mm 5,4 km/h (2 Bft) E-SE 112 0 min 0 W/m 12,9 C 19,9 C 9,4 km/h (2 Bft)
12/11/2011 15:30 19,9 C 64 % 1022,9 hPa 0,0 mm 3,6 km/h (1 Bft) SE 135 0 min 0 W/m 12,9 C 19,9 C 6,5 km/h (2 Bft)
12/11/2011 15:35 19,9 C 64 % 1023,0 hPa 0,0 mm 6,1 km/h (2 Bft) S-SE 157 0 min 0 W/m 12,9 C 19,9 C 6,5 km/h (2 Bft)
12/11/2011 15:40 19,9 C 64 % 1023,0 hPa 0,0 mm 2,9 km/h (1 Bft) E-SE 112 0 min 0 W/m 12,9 C 19,9 C 6,5 km/h (2 Bft)
12/11/2011 15:45 19,8 C 64 % 1023,0 hPa 0,0 mm 6,5 km/h (2 Bft) S-SE 157 0 min 0 W/m 12,8 C 19,8 C 11,9 km/h (2 Bft)
12/11/2011 15:50 19,8 C 64 % 1023,0 hPa 0,0 mm 1,8 km/h (1 Bft) SE 135 0 min 0 W/m 12,8 C 19,8 C 7,6 km/h (2 Bft)
12/11/2011 15:55 19,7 C 65 % 1023,0 hPa 0,0 mm 7,2 km/h (2 Bft) S-SE 157 0 min 0 W/m 12,9 C 19,7 C 10,1 km/h (2 Bft)
12/11/2011 16:00 19,6 C 65 % 1023,0 hPa 0,0 mm 3,6 km/h (1 Bft) SE 135 0 min 0 W/m 12,8 C 19,6 C 4,3 km/h (1 Bft)
12/11/2011 16:05 19,6 C 65 % 1022,9 hPa 0,0 mm 4,3 km/h (1 Bft) SE 135 0 min 0 W/m 12,8 C 19,6 C 6,8 km/h (2 Bft)
12/11/2011 16:10 19,5 C 65 % 1023,0 hPa 0,0 mm 1,1 km/h (1 Bft) S-SE 157 0 min 0 W/m 12,7 C 19,5 C 3,2 km/h (1 Bft)
12/11/2011 16:15 19,4 C 65 % 1023,0 hPa 0,0 mm 3,2 km/h (1 Bft) SE 135 0 min 0 W/m 12,6 C 19,4 C 4,0 km/h (1 Bft)
12/11/2011 16:20 19,4 C 65 % 1023,0 hPa 0,0 mm 0,7 km/h (0 Bft) SE 135 0 min 0 W/m 12,6 C 19,4 C 2,9 km/h (1 Bft)
12/11/2011 16:25 19,3 C 65 % 1023,1 hPa 0,0 mm 4,3 km/h (1 Bft) E-SE 112 0 min 0 W/m 12,6 C 19,3 C 7,2 km/h (2 Bft)
12/11/2011 16:30 19,3 C 65 % 1023,2 hPa 0,0 mm 4,3 km/h (1 Bft) S 180 0 min 0 W/m 12,6 C 19,3 C 4,3 km/h (1 Bft)
12/11/2011 16:35 19,2 C 65 % 1023,1 hPa 0,0 mm 2,5 km/h (1 Bft) SE 135 0 min 0 W/m 12,5 C 19,2 C 4,0 km/h (1 Bft)
12/11/2011 16:40 19,1 C 65 % 1023,1 hPa 0,0 mm 3,2 km/h (1 Bft) S-SE 157 0 min 0 W/m 12,4 C 19,1 C 7,2 km/h (2 Bft)
12/11/2011 16:45 19,1 C 65 % 1023,2 hPa 0,0 mm 3,6 km/h (1 Bft) SE 135 0 min 0 W/m 12,4 C 19,1 C 6,5 km/h (2 Bft)
12/11/2011 16:50 18,9 C 65 % 1023,2 hPa 0,0 mm 2,5 km/h (1 Bft) S-SE 157 0 min 0 W/m 12,2 C 18,9 C 4,3 km/h (1 Bft)
12/11/2011 16:55 18,9 C 65 % 1023,2 hPa 0,0 mm 4,7 km/h (1 Bft) SE 135 0 min 0 W/m 12,2 C 18,9 C 6,8 km/h (2 Bft)
12/11/2011 17:00 18,8 C 65 % 1023,2 hPa 0,0 mm 3,2 km/h (1 Bft) SE 135 0 min 0 W/m 12,1 C 18,8 C 7,2 km/h (2 Bft)
12/11/2011 17:05 18,8 C 66 % 1023,2 hPa 0,0 mm 2,2 km/h (1 Bft) S-SE 157 0 min 0 W/m 12,3 C 18,8 C 8,3 km/h (2 Bft)
12/11/2011 17:10 18,6 C 66 % 1023,2 hPa 0,0 mm 3,2 km/h (1 Bft) SE 135 0 min 0 W/m 12,1 C 18,6 C 6,5 km/h (2 Bft)
12/11/2011 17:15 18,4 C 66 % 1023,2 hPa 0,0 mm 1,1 km/h (1 Bft) SE 135 0 min 0 W/m 11,9 C 18,4 C 3,2 km/h (1 Bft)
12/11/2011 17:20 18,3 C 67 % 1023,2 hPa 0,0 mm 0,0 km/h (0 Bft) SE 135 0 min 0 W/m 12,1 C 18,3 C 0,0 km/h (0 Bft)
12/11/2011 17:25 18,2 C 67 % 1023,1 hPa 0,0 mm 2,2 km/h (1 Bft) SE 135 0 min 0 W/m 12,0 C 18,2 C 4,3 km/h (1 Bft)
12/11/2011 17:30 17,9 C 68 % 1023,2 hPa 0,0 mm 0,7 km/h (0 Bft) S 180 0 min 0 W/m 11,9 C 17,9 C 0,7 km/h (0 Bft)
12/11/2011 17:35 17,6 C 68 % 1023,2 hPa 0,0 mm 0,0 km/h (0 Bft) S 180 0 min 0 W/m 11,6 C 17,6 C 1,4 km/h (1 Bft)
12/11/2011 17:40 17,4 C 69 % 1023,3 hPa 0,0 mm 0,0 km/h (0 Bft) S 180 0 min 0 W/m 11,7 C 17,4 C 0,0 km/h (0 Bft)
12/11/2011 17:45 17,2 C 70 % 1023,3 hPa 0,0 mm 0,0 km/h (0 Bft) S 180 0 min 0 W/m 11,7 C 17,2 C 0,0 km/h (0 Bft)
12/11/2011 17:50 16,9 C 70 % 1023,3 hPa 0,0 mm 0,0 km/h (0 Bft) S 180 0 min 0 W/m 11,4 C 16,9 C 3,2 km/h (1 Bft)
12/11/2011 17:55 16,8 C 70 % 1023,2 hPa 0,0 mm 2,9 km/h (1 Bft) S-SE 157 0 min 0 W/m 11,3 C 16,8 C 7,2 km/h (2 Bft)
12/11/2011 18:00 16,6 C 71 % 1023,2 hPa 0,0 mm 2,5 km/h (1 Bft) S 180 0 min 0 W/m 11,3 C 16,6 C 3,2 km/h (1 Bft)
12/11/2011 18:05 16,4 C 71 % 1023,1 hPa 0,0 mm 2,5 km/h (1 Bft) S-SE 157 0 min 0 W/m 11,1 C 16,4 C 6,1 km/h (2 Bft)
12/11/2011 18:10 16,3 C 72 % 1023,1 hPa 0,0 mm 3,2 km/h (1 Bft) S 180 0 min 0 W/m 11,2 C 16,3 C 10,1 km/h (2 Bft)
12/11/2011 18:15 16,2 C 72 % 1023,0 hPa 0,0 mm 1,8 km/h (1 Bft) S-SE 157 0 min 0 W/m 11,1 C 16,2 C 6,8 km/h (2 Bft)
12/11/2011 18:20 16,1 C 72 % 1023,0 hPa 0,0 mm 2,2 km/h (1 Bft) S-SE 157 0 min 0 W/m 11,0 C 16,1 C 6,1 km/h (2 Bft)
12/11/2011 18:25 16,0 C 72 % 1023,0 hPa 0,0 mm 0,0 km/h (0 Bft) S-SE 157 0 min 0 W/m 11,0 C 16,0 C 3,2 km/h (1 Bft)
12/11/2011 18:30 15,9 C 73 % 1023,0 hPa 0,0 mm 0,7 km/h (0 Bft) S-SE 157 0 min 0 W/m 11,1 C 15,9 C 3,6 km/h (1 Bft)
12/11/2011 18:35 15,8 C 73 % 1023,0 hPa 0,0 mm 0,7 km/h (0 Bft) S 180 0 min 0 W/m 11,0 C 15,8 C 3,2 km/h (1 Bft)
12/11/2011 18:40 15,7 C 73 % 1023,0 hPa 0,0 mm 0,0 km/h (0 Bft) S-SE 157 0 min 0 W/m 10,9 C 15,7 C 0,0 km/h (0 Bft)
12/11/2011 18:45 15,5 C 73 % 1023,1 hPa 0,0 mm 0,0 km/h (0 Bft) S-SE 157 0 min 0 W/m 10,7 C 15,5 C 0,0 km/h (0 Bft)
12/11/2011 18:50 15,4 C 74 % 1023,0 hPa 0,0 mm 0,7 km/h (0 Bft) SE 135 0 min 0 W/m 10,8 C 15,4 C 0,7 km/h (0 Bft)
12/11/2011 18:55 15,4 C 74 % 1023,0 hPa 0,0 mm 1,8 km/h (1 Bft) SE 135 0 min 0 W/m 10,8 C 15,4 C 6,5 km/h (2 Bft)
12/11/2011 19:00 15,3 C 74 % 1023,0 hPa 0,0 mm 0,0 km/h (0 Bft) SE 135 0 min 0 W/m 10,7 C 15,3 C 0,0 km/h (0 Bft)
12/11/2011 19:05 15,2 C 74 % 1023,0 hPa 0,0 mm 0,4 km/h (0 Bft) SE 135 0 min 0 W/m 10,6 C 15,2 C 0,4 km/h (0 Bft)
12/11/2011 19:10 15,0 C 74 % 1023,0 hPa 0,0 mm 1,1 km/h (1 Bft) SE 135 0 min 0 W/m 10,4 C 15,0 C 1,1 km/h (1 Bft)
12/11/2011 19:15 14,9 C 75 % 1023,0 hPa 0,0 mm 0,4 km/h (0 Bft) SE 135 0 min 0 W/m 10,5 C 14,9 C 3,6 km/h (1 Bft)
12/11/2011 19:20 14,8 C 75 % 1023,0 hPa 0,0 mm 0,4 km/h (0 Bft) SE 135 0 min 0 W/m 10,4 C 14,8 C 3,6 km/h (1 Bft)
12/11/2011 19:25 14,7 C 75 % 1023,1 hPa 0,0 mm 1,8 km/h (1 Bft) SE 135 0 min 0 W/m 10,3 C 14,7 C 4,3 km/h (1 Bft)
12/11/2011 19:30 14,6 C 76 % 1023,1 hPa 0,0 mm 0,4 km/h (0 Bft) E-SE 112 0 min 0 W/m 10,4 C 14,6 C 3,2 km/h (1 Bft)
12/11/2011 19:35 14,4 C 76 % 1023,1 hPa 0,0 mm 0,0 km/h (0 Bft) E-SE 112 0 min 0 W/m 10,2 C 14,4 C 3,6 km/h (1 Bft)
12/11/2011 19:40 14,3 C 77 % 1023,1 hPa 0,0 mm 1,8 km/h (1 Bft) E-SE 112 0 min 0 W/m 10,3 C 14,3 C 4,3 km/h (1 Bft)
12/11/2011 19:45 14,1 C 77 % 1023,1 hPa 0,0 mm 0,0 km/h (0 Bft) E-NE 67 0 min 0 W/m 10,1 C 14,1 C 0,0 km/h (0 Bft)
12/11/2011 19:50 14,0 C 78 % 1023,2 hPa 0,0 mm 2,5 km/h (1 Bft) SE 135 0 min 0 W/m 10,2 C 14,0 C 4,3 km/h (1 Bft)
12/11/2011 19:55 13,9 C 78 % 1023,2 hPa 0,0 mm 2,5 km/h (1 Bft) E-SE 112 0 min 0 W/m 10,1 C 13,9 C 4,0 km/h (1 Bft)
12/11/2011 20:00 13,9 C 79 % 1023,2 hPa 0,0 mm 1,4 km/h (1 Bft) E-SE 112 0 min 0 W/m 10,3 C 13,9 C 3,2 km/h (1 Bft)
12/11/2011 20:05 13,8 C 79 % 1023,1 hPa 0,0 mm 0,4 km/h (0 Bft) E-SE 112 0 min 0 W/m 10,2 C 13,8 C 3,6 km/h (1 Bft)
12/11/2011 20:10 13,8 C 79 % 1023,2 hPa 0,0 mm 2,5 km/h (1 Bft) E-SE 112 0 min 0 W/m 10,2 C 13,8 C 6,5 km/h (2 Bft)
12/11/2011 20:15 13,6 C 80 % 1023,1 hPa 0,0 mm 2,2 km/h (1 Bft) E-SE 112 0 min 0 W/m 10,2 C 13,6 C 3,6 km/h (1 Bft)
12/11/2011 20:20 13,6 C 80 % 1023,1 hPa 0,0 mm 0,4 km/h (0 Bft) E 90 0 min 0 W/m 10,2 C 13,6 C 4,3 km/h (1 Bft)
12/11/2011 20:25 13,5 C 80 % 1023,1 hPa 0,0 mm 3,2 km/h (1 Bft) E-SE 112 0 min 0 W/m 10,1 C 13,5 C 3,6 km/h (1 Bft)
12/11/2011 20:30 13,4 C 80 % 1023,1 hPa 0,0 mm 0,4 km/h (0 Bft) SE 135 0 min 0 W/m 10,0 C 13,4 C 4,3 km/h (1 Bft)
12/11/2011 20:35 13,4 C 81 % 1023,0 hPa 0,0 mm 1,4 km/h (1 Bft) SE 135 0 min 0 W/m 10,2 C 13,4 C 4,0 km/h (1 Bft)
12/11/2011 20:40 13,4 C 81 % 1023,0 hPa 0,0 mm 0,7 km/h (0 Bft) E-SE 112 0 min 0 W/m 10,2 C 13,4 C 2,9 km/h (1 Bft)
12/11/2011 20:45 13,3 C 81 % 1023,1 hPa 0,0 mm 2,2 km/h (1 Bft) E-SE 112 0 min 0 W/m 10,1 C 13,3 C 4,0 km/h (1 Bft)
12/11/2011 20:50 13,1 C 81 % 1023,1 hPa 0,0 mm 2,5 km/h (1 Bft) E 90 0 min 0 W/m 9,9 C 13,1 C 4,3 km/h (1 Bft)
12/11/2011 20:55 13,1 C 81 % 1023,1 hPa 0,0 mm 1,1 km/h (1 Bft) E-SE 112 0 min 0 W/m 9,9 C 13,1 C 3,2 km/h (1 Bft)
12/11/2011 21:00 12,9 C 82 % 1023,1 hPa 0,0 mm 0,7 km/h (0 Bft) E-SE 112 0 min 0 W/m 9,9 C 12,9 C 4,0 km/h (1 Bft)
12/11/2011 21:05 12,9 C 82 % 1023,1 hPa 0,0 mm 0,4 km/h (0 Bft) E-SE 112 0 min 0 W/m 9,9 C 12,9 C 0,4 km/h (0 Bft)
12/11/2011 21:10 12,8 C 82 % 1023,2 hPa 0,0 mm 1,1 km/h (1 Bft) E-SE 112 0 min 0 W/m 9,8 C 12,8 C 4,0 km/h (1 Bft)
12/11/2011 21:15 12,8 C 82 % 1023,1 hPa 0,0 mm 0,4 km/h (0 Bft) E-SE 112 0 min 0 W/m 9,8 C 12,8 C 0,4 km/h (0 Bft)
12/11/2011 21:20 12,6 C 82 % 1023,1 hPa 0,0 mm 0,0 km/h (0 Bft) E-SE 112 0 min 0 W/m 9,6 C 12,6 C 0,0 km/h (0 Bft)
12/11/2011 21:25 12,5 C 83 % 1023,1 hPa 0,0 mm 0,7 km/h (0 Bft) E 90 0 min 0 W/m 9,7 C 12,5 C 3,2 km/h (1 Bft)
12/11/2011 21:30 12,4 C 83 % 1023,1 hPa 0,0 mm 0,0 km/h (0 Bft) SE 135 0 min 0 W/m 9,6 C 12,4 C 0,0 km/h (0 Bft)
12/11/2011 21:35 12,3 C 83 % 1023,1 hPa 0,0 mm 2,2 km/h (1 Bft) E-SE 112 0 min 0 W/m 9,5 C 12,3 C 4,0 km/h (1 Bft)
12/11/2011 21:40 12,2 C 83 % 1023,0 hPa 0,0 mm 3,2 km/h (1 Bft) E-SE 112 0 min 0 W/m 9,4 C 12,2 C 4,0 km/h (1 Bft)
12/11/2011 21:45 12,2 C 84 % 1023,1 hPa 0,0 mm 1,4 km/h (1 Bft) SE 135 0 min 0 W/m 9,6 C 12,2 C 6,8 km/h (2 Bft)
12/11/2011 21:50 12,3 C 84 % 1023,1 hPa 0,0 mm 2,2 km/h (1 Bft) SE 135 0 min 0 W/m 9,7 C 12,3 C 4,3 km/h (1 Bft)
12/11/2011 21:55 12,3 C 84 % 1023,2 hPa 0,0 mm 1,1 km/h (1 Bft) SE 135 0 min 0 W/m 9,7 C 12,3 C 4,3 km/h (1 Bft)
12/11/2011 22:00 12,3 C 84 % 1023,2 hPa 0,0 mm 0,7 km/h (0 Bft) E-SE 112 0 min 0 W/m 9,7 C 12,3 C 4,3 km/h (1 Bft)
12/11/2011 22:05 12,3 C 84 % 1023,2 hPa 0,0 mm 0,4 km/h (0 Bft) SE 135 0 min 0 W/m 9,7 C 12,3 C 0,4 km/h (0 Bft)
12/11/2011 22:10 12,3 C 84 % 1023,1 hPa 0,0 mm 0,7 km/h (0 Bft) E-SE 112 0 min 0 W/m 9,7 C 12,3 C 3,6 km/h (1 Bft)
12/11/2011 22:15 12,3 C 84 % 1023,1 hPa 0,0 mm 2,2 km/h (1 Bft) E-SE 112 0 min 0 W/m 9,7 C 12,3 C 6,5 km/h (2 Bft)
12/11/2011 22:20 12,3 C 84 % 1023,1 hPa 0,0 mm 1,8 km/h (1 Bft) SE 135 0 min 0 W/m 9,7 C 12,3 C 4,0 km/h (1 Bft)
12/11/2011 22:25 12,4 C 84 % 1023,0 hPa 0,0 mm 1,4 km/h (1 Bft) SE 135 0 min 0 W/m 9,8 C 12,4 C 3,6 km/h (1 Bft)
12/11/2011 22:30 12,4 C 84 % 1023,1 hPa 0,0 mm 4,3 km/h (1 Bft) SE 135 0 min 0 W/m 9,8 C 12,4 C 9,0 km/h (2 Bft)
12/11/2011 22:35 12,5 C 83 % 1023,1 hPa 0,0 mm 5,4 km/h (2 Bft) SE 135 0 min 0 W/m 9,7 C 12,5 C 7,2 km/h (2 Bft)
12/11/2011 22:40 12,6 C 83 % 1023,1 hPa 0,0 mm 2,5 km/h (1 Bft) SE 135 0 min 0 W/m 9,8 C 12,6 C 4,0 km/h (1 Bft)
12/11/2011 22:45 12,7 C 83 % 1023,1 hPa 0,0 mm 4,0 km/h (1 Bft) SE 135 0 min 0 W/m 9,9 C 12,7 C 4,0 km/h (1 Bft)
12/11/2011 22:50 12,6 C 83 % 1023,1 hPa 0,0 mm 1,4 km/h (1 Bft) SE 135 0 min 0 W/m 9,8 C 12,6 C 3,6 km/h (1 Bft)
12/11/2011 22:55 12,6 C 82 % 1023,0 hPa 0,0 mm 0,0 km/h (0 Bft) SE 135 0 min 0 W/m 9,6 C 12,6 C 0,0 km/h (0 Bft)
12/11/2011 23:00 12,5 C 82 % 1023,1 hPa 0,0 mm 0,0 km/h (0 Bft) SE 135 0 min 0 W/m 9,5 C 12,5 C 0,0 km/h (0 Bft)
12/11/2011 23:05 12,3 C 82 % 1023,2 hPa 0,0 mm 0,0 km/h (0 Bft) E-SE 112 0 min 0 W/m 9,3 C 12,3 C 0,0 km/h (0 Bft)
_ Min-Heure 21:45 13:55 00:05 - 23:05 - - - - 23:05 21:45 23:05
Minimum _ 12,2 C 61 % 1019,1 hPa - 0,0 km/h (0 Bft) - - - - 9,3 C 12,2 C 0,0 km/h (0 Bft)
_ Max-Heure 13:50 22:30 11:50 23:05 11:50 - - 23:05 23:05 12:55 13:50 12:10
Maximum _ 20,9 C 84 % 1023,8 hPa 0,0 mm 13,7 km/h
S-SE (3 Bft)
- - 0 min 0 W/m 13,8 C 20,9 C 21,6 km/h
S-SO (4 Bft)
Moyenne _ 15,8 C 76 % 1022,1 hPa #0,0 mm 4,1 km/h (1 Bft) SE - #0 min. 0 W/m 11,4 C 15,8 C 7,2 km/h (2 Bft)
Saint Bonnet de Bellac- Haute Vienne - France